Weather History for Greenville, ME

Change the Weather History Date:

Sunday, February 17, 2013

  Actual Average (KMLT) Record (KMLT)
Temperature  
Mean Temperature -12 °C -7 °C  
Max Temperature -10 °C -2 °C 8 °C (1984)
Min Temperature -14 °C -13 °C -35 °C (1934)
Degree Days  
Heating Degree Days 54 46  
Month to date heating degree days 824  
Since 1 July heating degree days 5570  
Cooling Degree Days 0 0  
Month to date cooling degree days 0  
Year to date cooling degree days 0  
Moisture  
Dew Point -14 °C    
Average Humidity 81    
Maximum Humidity 88    
Minimum Humidity 71    
Precipitation  
Precipitation 5.33 mm 2.03 mm 5.97 mm (1955)
Month to date precipitation 1.14  
Year to date precipitation 4.07  
Sea Level Pressure  
Sea Level Pressure 995 hPa    
Wind  
Wind Speed 27 km/h (NW)    
Max Wind Speed 52 km/h    
Max Gust Speed 77 km/h    
T = Trace of Precipitation, MM = Missing Value Source: NWS Daily Summary

Daily Weather History Graph

Daily Weather History Graph

Search for Another Location

Airport:

Trip Planner

Search our weather history database for the weather conditions in past years. The results will help you decide how hot, cold, wet, or windy it might be!

Date:

Astronomy

Feb. 17, 2013 Rise Set
Actual Time 6:36 AM EST 5:08 PM EST
Civil Twilight 6:06 AM EST 5:39 PM EST
Nautical Twilight 5:31 AM EST 6:13 PM EST
Astronomical Twilight 4:57 AM EST 6:47 PM EST
Moon 10:04 AM EST (2/17) 12:23 AM EST (2/17)
Length of Visible Light 11h 32m
Length of Day
10h 32m
Waxing Crescent, 49% of the Moon is Illuminated
Feb 17
Waxing Crescent
Feb 17
First Quarter
Feb 25
Full
Mar 4
Last Quarter
Mar 11
New

Hourly Weather History & Observations

Time (EST) Temp. Windchill Dew Point Humidity Pressure Visibility Wind Dir Wind Speed Gust Speed Precip Events Conditions
12:56 AM -10.6 °C -18.3 °C -14.4 °C 74% 1008.7 hPa - NNW 18.5 km/h / 5.1 m/s 33.3 km/h / 9.3 m/s N/A   Unknown
1:56 AM -10.6 °C -17.4 °C -14.4 °C 74% 1007.3 hPa - NW 14.8 km/h / 4.1 m/s 29.6 km/h / 8.2 m/s N/A   Unknown
2:56 AM -10.6 °C -19.7 °C -15.0 °C 71% 1006.2 hPa - NNW 25.9 km/h / 7.2 m/s 33.3 km/h / 9.3 m/s N/A   Unknown
3:56 AM -11.1 °C -18.9 °C -15.0 °C 73% 1004.6 hPa - NNW 18.5 km/h / 5.1 m/s 33.3 km/h / 9.3 m/s N/A   Unknown
4:56 AM -11.1 °C -17.5 °C -14.4 °C 77% 1003.8 hPa - North 13.0 km/h / 3.6 m/s 29.6 km/h / 8.2 m/s N/A   Unknown
5:56 AM -11.1 °C -19.3 °C -13.9 °C 80% 1002.3 hPa - NNW 20.4 km/h / 5.7 m/s 38.9 km/h / 10.8 m/s N/A   Unknown
6:56 AM -11.7 °C -20.4 °C -13.3 °C 88% 1001.1 hPa - NNW 22.2 km/h / 6.2 m/s 40.7 km/h / 11.3 m/s 0.3 mm   Unknown
7:56 AM -11.1 °C -21.1 °C -12.8 °C 88% 999.1 hPa - NNW 31.5 km/h / 8.7 m/s 46.3 km/h / 12.9 m/s 0.3 mm   Unknown
8:56 AM -10.6 °C -20.7 °C -12.8 °C 84% 997.4 hPa - NNW 33.3 km/h / 9.3 m/s 57.4 km/h / 15.9 m/s 0.8 mm   Unknown
9:56 AM -10.6 °C -21.0 °C -12.8 °C 84% 995.4 hPa - NNW 35.2 km/h / 9.8 m/s 55.6 km/h / 15.4 m/s N/A   Unknown
10:56 AM -10.6 °C -22.0 °C -12.8 °C 84% 994.0 hPa - NNW 44.4 km/h / 12.3 m/s 66.7 km/h / 18.5 m/s N/A   Unknown
11:56 AM -10.6 °C -22.2 °C -12.2 °C 88% 992.2 hPa - NNW 46.3 km/h / 12.9 m/s 70.4 km/h / 19.5 m/s 0.5 mm   Unknown
12:56 PM -10.0 °C -21.9 °C -11.7 °C 88% 989.5 hPa - NNW 51.9 km/h / 14.4 m/s 74.1 km/h / 20.6 m/s 0.5 mm   Unknown
1:56 PM -11.1 °C -22.7 °C -12.8 °C 88% 988.8 hPa - NW 44.4 km/h / 12.3 m/s 72.2 km/h / 20.1 m/s 0.8 mm   Unknown
2:56 PM -11.1 °C -22.7 °C -13.3 °C 84% 988.0 hPa - NW 44.4 km/h / 12.3 m/s 72.2 km/h / 20.1 m/s 0.3 mm   Unknown
3:56 PM -10.6 °C -22.7 °C -12.8 °C 84% 987.5 hPa - NW 51.9 km/h / 14.4 m/s 77.8 km/h / 21.6 m/s 0.5 mm   Unknown
4:56 PM -10.6 °C -20.5 °C -12.2 °C 88% 987.1 hPa - NW 31.5 km/h / 8.7 m/s 64.8 km/h / 18.0 m/s 0.5 mm   Unknown
5:56 PM -11.1 °C -22.7 °C -13.3 °C 84% 987.7 hPa - NW 44.4 km/h / 12.3 m/s 75.9 km/h / 21.1 m/s 0.5 mm   Unknown
6:56 PM -11.7 °C -22.4 °C -14.4 °C 81% 989.1 hPa - NW 35.2 km/h / 9.8 m/s 63.0 km/h / 17.5 m/s 0.3 mm   Unknown
7:56 PM -12.2 °C -22.8 °C -15.6 °C 76% 989.8 hPa - NW 33.3 km/h / 9.3 m/s 63.0 km/h / 17.5 m/s 0.3 mm   Unknown
8:56 PM -12.8 °C -22.8 °C -15.6 °C 80% 990.4 hPa - NW 27.8 km/h / 7.7 m/s 57.4 km/h / 15.9 m/s N/A   Unknown
9:56 PM -12.8 °C -21.0 °C -15.6 °C 80% 991.3 hPa - NW 18.5 km/h / 5.1 m/s 57.4 km/h / 15.9 m/s N/A   Unknown
10:56 PM -13.3 °C -22.8 °C -16.7 °C 76% 992.0 hPa - NW 24.1 km/h / 6.7 m/s 55.6 km/h / 15.4 m/s N/A   Unknown
11:56 PM -13.9 °C -23.6 °C -17.8 °C 73% 992.5 hPa - NW 24.1 km/h / 6.7 m/s 51.9 km/h / 14.4 m/s N/A   Unknown